Val Marie Southeast, Saskatchewan

3:13 PM CST on October 19, 2017 (GMT -0600)
Val Marie Southeast

Weather History for CWVN - May, 2013

Change the Weather History Date:

Wednesday, May 22, 2013

  Actual Average Record
Temperature  
Mean Temperature 57 °F -  
Max Temperature 71 °F - - ()
Min Temperature 43 °F - - ()
Degree Days  
Heating Degree Days 8    
Growing Degree Days 7 (Base 50)    
Moisture  
Dew Point 27 °F    
Average Humidity 33    
Maximum Humidity 64    
Minimum Humidity 6    
Precipitation  
Precipitation 0.00 in - - ()
Sea Level Pressure  
Sea Level Pressure 30.07 in    
Wind  
Wind Speed 12 mph ()    
Max Wind Speed 29 mph    
Max Gust Speed 37 mph    
T = Trace of Precipitation, MM = Missing Value Source: Averaged Metar Reports

Daily Weather History Graph

Daily Weather History Graph

Search for Another Location

Airport or City:

Trip Planner

Search our weather history database for the weather conditions in past years. The results will help you decide how hot, cold, wet, or windy it might be!

Date:

Astronomy

May. 22, 2013 Rise Set
Actual Time 5:18 AM CST 8:55 PM CST
Civil Twilight 4:39 AM CST 9:35 PM CST
Nautical Twilight 3:46 AM CST 10:29 PM CST
Astronomical Twilight 2:31 AM CST 11:45 PM CST
Moon 6:10 PM CST (5/22) 3:40 AM CST (5/22)
Length of Visible Light 16h 56m
Length of Day
15h 36m
Waxing Gibbous, 92% of the Moon is Illuminated
May 22
Waxing Gibbous
May 24
Full
May 31
Last Quarter
Jun 8
New
Jun 16
First Quarter

Hourly Weather History & Observations

Time (CST) Temp. Windchill Dew Point Humidity Pressure Visibility Wind Dir Wind Speed Gust Speed Precip Events Conditions
12:00 AM 51 °F - 27 °F 26% 30.04 in - ESE 8.1 mph - -  
12:00 AM 51.3 °F - 26.6 °F 38% 30.04 in - ESE 8.1 mph - N/A   Unknown
1:00 AM 43.9 °F 39.9 °F 29.5 °F 57% 30.04 in - East 6.9 mph - N/A   Unknown
2:00 AM 48.6 °F - 30.2 °F 49% 30.04 in - East 8.1 mph - N/A   Unknown
3:00 AM 47 °F - 30 °F 39% 30.05 in - East 8.1 mph - -  
3:00 AM 47.1 °F - 30.0 °F 51% 30.05 in - East 8.1 mph - N/A   Unknown
4:00 AM 48.4 °F - 31.5 °F 52% 30.05 in - East 8.1 mph - N/A   Unknown
5:00 AM 44.4 °F 40.5 °F 31.3 °F 60% 30.07 in - ENE 6.9 mph - N/A   Unknown
6:00 AM 45 °F - 34 °F 54% 30.07 in - East 5.8 mph - -  
6:00 AM 45.0 °F 41.8 °F 33.6 °F 64% 30.07 in - East 5.8 mph - N/A   Unknown
7:00 AM 47.7 °F - 35.2 °F 62% 30.08 in - East 5.8 mph - N/A   Unknown
8:00 AM 51.8 °F - 34.5 °F 52% 30.09 in - East 10.4 mph - N/A   Unknown
9:00 AM 55 °F - 34 °F 32% 30.10 in - East 13.8 mph - -  
9:00 AM 54.9 °F - 33.6 °F 45% 30.10 in - East 13.8 mph - N/A   Unknown
10:00 AM 56.7 °F - 31.5 °F 38% 30.09 in - ESE 16.1 mph - N/A   Unknown
11:00 AM 63.7 °F - 25.0 °F 23% 30.07 in - SE 24.2 mph 34.5 mph N/A   Unknown
12:00 PM 66 °F - 24 °F 11% 30.09 in - ESE 25.3 mph - -  
12:00 PM 66.0 °F - 24.3 °F 21% 30.09 in - ESE 25.3 mph 33.4 mph N/A   Unknown
1:00 PM 68.2 °F - 21.9 °F 17% 30.07 in - SE 26.5 mph 36.8 mph N/A   Unknown
2:00 PM 69.6 °F - 19.9 °F 15% 30.07 in - ESE 28.8 mph 36.8 mph N/A   Unknown
3:00 PM 71 °F - 19 °F 6% 30.05 in - ESE 25.3 mph - -  
3:00 PM 70.5 °F - 19.0 °F 14% 30.05 in - ESE 25.3 mph 36.8 mph N/A   Unknown
4:00 PM 70.5 °F - 20.8 °F 15% 30.05 in - ESE 28.8 mph 35.7 mph N/A   Unknown
5:00 PM 70.3 °F - 23.4 °F 17% 30.05 in - SE 25.3 mph 33.4 mph N/A   Unknown
6:00 PM 69 °F - 21 °F 8% 30.04 in - ESE 26.5 mph - -  
6:00 PM 69.4 °F - 20.7 °F 16% 30.04 in - ESE 26.5 mph 34.5 mph N/A   Unknown
7:00 PM 67.6 °F - 22.1 °F 18% 30.05 in - ESE 23.0 mph 33.4 mph N/A   Unknown
8:00 PM 63.9 °F - 25.9 °F 24% 30.06 in - SE 18.4 mph 25.3 mph N/A   Unknown
9:00 PM 60 °F - 28 °F 18% 30.08 in - SE 13.8 mph - -  
9:00 PM 59.5 °F - 27.5 °F 30% 30.08 in - SE 13.8 mph - N/A   Unknown
10:00 PM 55.0 °F - 29.1 °F 37% 30.10 in - SE 9.2 mph - N/A   Unknown
11:00 PM 52.3 °F - 30.7 °F 44% 30.11 in - ESE 10.4 mph - N/A   Unknown